Tracking 35237 objects as of 5-Sep-2026
HD Live streaming from Space Station
objects crossing your sky now

SL-12 R/B(2)

Track SL-12 R/B(2) now!


NORAD ID: 17875
Int'l Code: 1984-090F
Launch date: August 24, 1984
Source: Commonwealth of Independent States (former USSR) (CIS)
Launch site: TYURATAM MISSILE AND SPACE COMPLEX (TTMTR)

Note: This is a ROCKET BODY
Your satellite tracking list
Your tracking list is empty




NASA's NSSDC Master Catalog

Two Line Element Set (TLE):
1 17875U 84090F   26247.64341079  .00000096  00000-0  00000+0 0  9998
2 17875   7.5946 305.9641 0015594 173.3178 275.1484  1.01259385157674
Source of the keplerian elements: AFSPC